Starlink 35186

operational
NORAD ID: 65611 Int'l Des: 2025-207 Owner: SPXS Country: US Constellation: starlink
NOTLE

About Starlink 35186

Description loading...

Live Position

Loading 3D Globe...

Upcoming Passes

Altitude History

Altitude vs Time

uPlot chart will show altitude changes over time

Two-Line Element Set

1 65611U 25207V 25308.12618238 .00101000 00000-0 25557-2 0 9992
2 65611 97.6060 12.5056 0000873 84.1209 276.0136 15.39369540 9212
Epoch: Nov 4, 2025 • Age: 19 hours

Current Status

Altitude 453.7 km
Velocity 7.64 km/s
Sub-Earth Point 44.30°N, 7.64°W
Launch Date Sep 13, 2025
Age 0.1 years
Type internet

Technical Details

Classification Payload
Mass 575.00 kg
Dry Mass 530.00 kg
Total Mass 575.00 kg
Length 0.30 m
Diameter 4.10 m
Span 29.00 m
Shape Box + pan
Manufacturer SPXS
Bus Type Starlink V2MO
Phase Status In Orbit
Owner/State SPXS/US

Large Constellations

Loading constellations...